Presure
210 207 216 223 226 214 215 227 224 228 227 226 218 210 210 204 206 214 223 227 233 247 244 170 199 195 199
206 194 213 222 233 230 225 220 222 218 217 231 229 227 225 222 214 206 202 201 189 227 231 243 251 243 213
215 220 224 225 228 225 228 234 237 240 235 236 237 253 262 247 246 233 233 225 201 196 205 207 220 244 255
235 234 231 229 218 214 221 229 239 248 256 273 279 270 262 275 256 265 287 260 218 222 221 209 204 207 225
246 240 236 235 241 241 240 236 243 238 262 261 269 279 295 311 303 301 296 289 272 251 227 218 235 218 205
252 254 257 254 253 249 256 249 257 275 279 288 301 308 309 302 302 301 293 288 289 279 262 248 243 228 246
265 265 268 262 259 262 253 286 296 287 285 275 287 290 284 284 288 305 308 304 293 290 275 277 258 248 245
288 264 266 264 263 261 259 260 248 239 234 227 238 231 238 241 244 254 252 281 297 302 298 291 285 281 265
296 306 330 327 324 326 325 279 280 277 284 289 264 262 258 254 252 254 253 253 256 258 258 242 310 304 294
332 329 326 325 326 329 328 326 323 320 310 308 313 315 323 320 323 326 333 340 345 300 268 272 269 268 265
291 291 292 293 293 295 295 296 294 298 294 298 302 305 310 323 352 374 415 419 428 434 449 483 490 495 360
292 290 290 294 297 298 299 302 305 330 334 333 333 366 387 386 385 382 387 393 403 436 440 456 474 544 557
336 335 331 328 327 325 326 324 372 378 374 370 366 367 365 363 366 377 386 400 414 415 433 484 537 526 514
407 398 230 382 374 370 369 364 365 357 353 344 348 347 342 351 374 388 400 397 399 433 475 515 499 478 487
362 359 357 354 352 355 347 354 345 335 331 331 333 334 342 370 376 402 388 391 419 453 477 470 461 475 492
344 345 345 347 344 336 345 339 326 320 318 320 322 328 347 362 386 389 382 399 421 440 435 447 455 465 465
335 335 336 334 332 343 332 320 316 312 314 322 344 331 342 354 377 376 377 392 410 414 425 440 450 433 435
Wind_Speed
113 110 111 111 112 112 115 117 117 117 117 118 122 126 127 128 126 122 117 117 116 112 118 120 122 118 116
115 116 116 115 117 120 120 119 119 120 120 122 123 125 125 125 130 131 128 127 115 119 117 114 115 123 133
118 120 122 122 117 120 122 123 125 126 128 127 127 126 124 129 131 131 129 128 127 126 128 126 122 115 116
122 125 125 125 123 125 125 125 124 124 125 122 123 121 124 123 127 127 126 132 133 132 132 129 129 126 124
123 121 123 126 127 127 125 126 127 125 125 125 122 123 125 123 123 124 126 131 134 137 138 137 134 136 131
123 124 126 128 128 128 127 127 127 130 128 128 127 122 123 124 125 127 129 131 133 138 142 141 140 137 135
125 128 130 128 128 130 128 130 125 123 120 114 120 117 120 120 121 124 127 132 136 138 141 145 146 145 143
117 117 117 120 122 125 125 122 121 125 128 125 131 131 132 130 130 130 130 128 131 137 142 145 147 149 149
122 113 99 102 109 111 110 132 131 132 133 129 131 135 136 136 138 140 140 139 138 139 139 139 145 150 151
83 84 88 92 94 95 97 97 99 102 112 117 117 122 119 121 123 127 132 133 135 143 146 147 146 146 144
87 89 91 91 93 94 96 96 98 101 109 112 111 114 116 114 106 107 88 89 91 95 93 86 87 92 131
90 92 93 94 95 96 98 99 99 99 103 105 104 87 75 75 76 82 86 86 88 83 84 82 80 70 69
89 89 91 91 90 91 91 92 68 63 64 65 69 71 72 71 72 70 74 74 74 78 78 72 65 62 64
41 44 42 51 55 58 56 59 55 57 60 65 65 66 68 69 65 59 62 63 67 65 64 56 56 57 60
43 47 51 53 54 53 54 52 51 54 59 61 61 63 64 58 56 53 56 57 56 54 52 52 51 50 51
44 45 48 49 49 51 48 46 49 52 55 60 62 61 56 53 52 48 49 48 48 47 47 49 45 44 50
43 43 44 46 45 45 44 46 46 48 51 53 49 52 49 48 48 47 43 43 42 42 45 44 42 47 50
Wind_Direction
259 257 258 257 255 252 253 256 254 256 255 254 253 253 253 253 252 250 249 250 249 248 248 241 247 244 245
258 256 259 260 259 258 258 257 256 254 252 256 254 253 252 251 250 251 252 252 252 248 247 247 244 244 247
258 260 261 261 260 258 258 258 258 258 257 257 257 257 256 255 254 251 250 248 252 252 250 250 246 244 241
260 261 261 262 258 259 259 260 261 262 263 263 261 259 256 257 253 252 246 247 248 245 245 248 249 248 242
260 259 260 261 262 262 262 262 262 261 263 261 262 261 259 255 252 248 246 244 243 246 246 246 244 242 247
260 261 261 261 262 263 263 262 265 265 262 261 260 258 256 253 251 249 248 246 244 242 243 245 245 243 242
260 261 261 261 261 262 263 262 261 261 261 261 260 256 255 254 254 253 252 250 247 244 243 242 243 243 243
262 261 261 260 260 259 260 259 259 258 258 257 258 257 256 256 255 254 252 251 250 248 246 243 242 241 242
263 262 260 260 260 259 260 261 261 262 261 259 258 258 258 257 255 254 253 252 251 249 247 246 245 243 241
262 262 260 259 260 261 261 260 259 259 260 260 259 260 259 259 259 258 258 258 256 253 251 249 247 245 243
261 261 261 261 261 261 261 261 260 260 260 261 261 261 261 260 262 264 263 264 263 261 260 260 258 256 247
261 261 261 262 262 262 263 262 262 264 264 264 264 264 263 262 263 264 265 265 266 265 263 262 260 261 254
265 265 264 264 265 264 264 264 259 260 260 261 263 264 266 266 265 268 267 267 267 265 267 267 265 254 247
252 251 257 252 254 255 256 258 258 260 262 263 266 269 270 273 275 273 272 267 267 271 271 266 257 248 245
252 253 254 254 255 255 256 256 259 261 265 270 271 272 276 281 282 279 272 274 273 273 268 259 252 250 245
256 256 256 255 254 254 252 253 258 264 268 272 273 276 283 288 288 278 276 276 274 269 261 258 253 243 235
257 256 256 255 253 247 250 254 260 265 269 272 278 280 287 292 288 282 276 276 272 264 262 259 247 228 221